EHI
0 0 0 0 0 0 0 0 0 0 0 0 0 0 0 0 0 0 0 0 0 0 0 0 0 0 0 0 0 0 0 0 0 0 0 0 0 0 0 0 0 0 0
0 0 0 0 0 0 0 0 0 0 0 0 0 0 0 0 0 0 0 0 0 0 0 0 0 0 0 0 0 0 0 0 0 0 0 0 0 0 0 0 0 0 0
0 0 0 0 0 0 0 0 0 0 0 0 0 0 0 0 0 0 0 0 0 0 0 0 0 0 0 0 0 0 0 0 0 0 0 0 0 0 0 0 0 0 0
0 0 0 0 0 0 0 0 0 0 0 0 0 0 0 0 0 0 0 0 0 0 0 0 0 0 0 0 0 0 0 0 0 0 0 0 0 0 0 0 0 0 0
0 0 0 0 0 0 0 0 0 0 0 0 0 0 0 0 0 0 0 0 0 0 0 0 0 0 0 0 0 0 0 0 0 0 0 0 0 0 0 0 0 0 0
0 0 0 0 0 0 0 0 0 0 0 0 0 0 0 0 0 0 0 0 0 0 0 0 0 0 0 0 0 0 0 0 0 0 0 0 0 0 0 0 0 0 0
0 0 0 0 0 0 0 0 0 0 0 0 0 0 0 0 0 0 0 0 0 0 0 0 0 0 0 0 0 0 0 0 0 0 0 0 0 0 0 0 0 0 0
0 0 0 0 0 0 0 0 0 0 0 0 0 0 0 0 0 0 0 0 0 0 0 0 0 0 0 0 0 0 0 0 0 0 1 0 0 0 0 0 0 0 0
0 0 0 0 0 0 0 0 0 0 0 0 0 0 0 0 0 0 0 0 0 0 0 0 0 0 0 0 0 0 0 0 0 0 0 0 0 0 0 0 0 0 0
0 0 0 0 0 0 0 0 0 0 0 0 0 0 0 0 0 0 0 0 0 0 0 0 0 0 0 0 0 0 0 0 1 0 0 0 0 0 0 0 0 0 0
0 0 0 0 0 0 0 0 0 0 0 0 0 0 0 0 0 0 0 0 0 0 0 0 0 0 0 0 0 0 0 0 0 0 0 0 0 0 0 0 0 0 0
0 0 0 0 0 0 0 0 0 0 0 0 0 0 0 0 0 0 0 0 0 0 0 0 0 0 0 0 0 0 0 0 0 0 0 0 0 0 0 0 0 0 0
0 0 0 0 0 0 0 0 0 0 0 0 0 0 0 0 0 0 0 0 0 0 0 0 0 0 0 0 0 0 0 0 0 0 0 0 0 0 0 0 0 0 0
0 0 0 0 0 0 0 0 0 0 0 0 0 0 0 0 0 0 0 0 0 0 0 0 0 0 0 0 0 0 0 0 0 0 0 0 0 0 0 0 0 0 0
0 0 0 0 0 0 0 0 0 0 0 0 0 0 0 0 0 0 0 0 0 0 0 0 0 0 0 0 0 0 0 0 0 0 0 0 0 0 0 0 0 0 0
0 0 0 0 0 0 0 0 0 0 0 0 0 0 0 0 0 0 0 0 0 0 0 0 0 0 0 0 0 0 0 0 0 0 0 0 0 0 0 0 0 0 0
0 0 0 0 0 0 0 0 0 0 0 0 0 0 0 0 0 0 0 0 0 0 0 0 0 0 0 0 0 0 0 0 0 0 0 0 0 0 0 0 0 0 0
0 0 0 0 0 0 0 0 0 0 0 0 0 0 0 0 0 0 0 0 0 0 0 0 0 0 0 0 0 0 0 0 0 0 0 0 0 0 0 0 0 0 0
0 0 0 0 0 0 0 0 0 0 0 0 0 0 0 0 0 0 0 0 0 0 0 0 0 0 0 0 0 0 0 0 0 0 0 0 0 0 0 0 0 0 0
0 0 0 0 0 0 0 0 0 0 0 0 0 0 0 0 0 0 0 0 0 0 0 0 0 0 0 0 0 0 0 0 0 0 0 0 0 0 0 0 0 0 0
0 0 0 0 0 0 0 0 0 0 0 0 0 0 0 0 0 0 0 0 0 0 0 0 0 0 0 0 0 0 0 0 0 0 0 0 0 0 0 0 0 0 0
0 0 0 0 0 0 0 0 0 0 0 0 0 0 0 0 0 0 0 0 0 0 0 0 0 0 0 0 0 0 0 0 0 0 0 0 0 0 0 0 0 0 0
0 0 0 0 0 0 0 0 0 0 0 0 0 0 0 0 0 0 0 0 0 0 0 0 0 0 0 0 0 0 0 0 0 0 0 0 0 0 0 0 0 0 0
0 0 0 0 0 0 0 0 0 0 0 0 0 0 0 0 0 0 0 0 0 0 0 0 0 0 0 0 0 0 0 0 0 0 0 0 0 0 0 0 0 0 0
0 0 0 0 0 0 0 0 0 0 0 0 0 0 0 0 0 0 0 0 0 0 0 0 0 0 0 0 0 0 0 0 0 0 0 0 0 0 0 0 0 0 0
0 0 0 0 0 0 0 0 0 0 0 0 0 0 0 0 0 0 0 0 0 0 0 0 0 0 0 0 0 0 0 0 0 0 0 0 0 0 0 0 0 0 0
Wind_Speed
3 3 2 2 3 3 3 4 4 4 4 4 4 3 2 2 2 1 2 5 5 4 3 3 3 4 4 5 6 7 7 6 7 7 8 9 11 12 12 12 12 12 12
2 2 3 3 3 3 3 3 4 3 3 3 3 3 3 2 1 1 1 3 5 5 4 4 4 4 5 5 6 7 7 7 7 7 7 8 10 12 12 11 11 11 12
3 3 3 3 3 3 4 3 5 4 4 3 3 2 1 1 1 1 1 2 3 5 5 4 5 5 5 6 6 7 7 8 8 7 7 8 9 10 11 11 11 10 11
4 3 3 3 3 3 3 3 2 3 4 3 3 2 1 0 1 1 1 1 2 3 4 5 5 5 5 6 6 7 7 8 8 8 7 7 8 9 10 11 11 10 10
5 4 2 2 4 3 3 5 4 3 3 4 3 2 1 1 1 1 1 1 1 3 3 5 6 6 5 6 7 7 7 8 9 9 8 8 8 9 10 10 10 10 10
4 4 3 3 3 3 3 3 4 4 3 3 4 3 2 1 0 1 1 1 0 1 3 4 4 4 6 6 6 7 7 8 9 9 9 9 9 9 10 10 10 10 10
3 3 3 3 2 2 3 4 3 5 4 3 3 3 2 1 1 1 1 1 0 1 2 3 3 2 3 6 6 7 7 8 9 9 9 9 9 9 10 10 10 10 10
3 4 4 3 3 2 3 3 3 3 3 3 2 2 2 2 3 2 1 1 1 1 1 2 2 2 3 3 4 6 6 7 8 9 9 9 9 10 10 10 11 10 10
1 2 3 3 3 2 2 3 3 4 3 3 2 2 2 2 2 2 2 2 1 1 1 1 2 1 2 3 4 5 6 6 7 8 8 9 9 10 10 11 11 10 10
1 0 2 3 3 2 2 3 3 3 3 3 3 2 1 0 0 1 2 2 2 2 2 1 2 2 2 2 3 5 6 6 6 8 8 9 9 10 10 10 11 10 10
2 1 1 2 2 2 2 2 3 2 2 2 2 2 2 2 1 0 1 1 2 1 1 1 1 1 2 2 2 4 6 5 5 6 7 7 8 9 10 10 11 11 11
2 2 1 2 1 1 1 2 2 2 1 2 2 2 1 1 2 1 0 0 0 1 0 1 1 1 1 2 3 5 6 5 5 5 5 5 6 7 9 10 11 11 11
1 1 1 1 1 1 1 1 2 2 1 1 1 1 2 1 1 1 0 1 1 1 0 0 1 1 2 2 2 4 5 5 5 5 5 5 5 5 6 8 9 11 11
1 1 1 2 1 1 2 1 2 3 2 1 2 1 1 1 1 0 0 0 1 1 0 1 0 2 2 2 3 4 3 5 5 5 5 5 5 4 4 5 6 7 8
1 1 1 2 2 2 1 2 1 3 2 1 1 2 1 1 1 1 0 1 1 0 1 1 0 1 2 2 3 3 3 5 6 6 5 5 5 4 4 4 4 4 4
2 1 3 3 3 3 3 2 2 2 3 2 2 1 2 1 1 1 1 1 1 2 1 1 1 1 2 3 4 2 3 6 6 7 6 6 5 5 5 4 4 4 4
3 3 4 3 3 3 3 3 3 3 3 3 2 2 2 2 1 1 1 1 1 1 2 1 1 1 2 2 2 2 3 3 3 7 7 7 6 6 5 5 5 5 5
3 3 3 3 3 3 3 3 3 4 4 4 3 2 2 2 2 1 1 2 2 1 2 2 1 1 2 2 3 2 2 3 3 6 8 8 8 7 6 5 5 5 5
4 4 4 3 3 3 3 4 4 4 4 4 4 3 3 2 2 2 2 2 2 1 1 2 2 1 1 1 2 1 1 1 2 5 7 7 7 7 7 6 5 5 5
5 5 4 4 3 3 4 4 3 4 5 5 4 4 4 3 3 3 2 2 2 2 1 1 2 1 1 2 2 2 1 1 1 2 3 5 6 7 7 6 6 5 5
6 5 5 5 4 3 3 3 3 5 5 5 5 5 5 6 5 3 2 2 2 2 2 2 2 2 2 2 2 2 2 1 1 2 2 2 3 3 4 5 6 6 5
5 5 5 5 5 5 4 4 3 5 6 6 6 5 5 6 8 9 7 6 4 3 2 2 2 3 3 3 2 3 2 2 2 2 2 2 3 3 3 3 6 7 6
5 5 6 6 6 6 7 7 7 5 6 7 7 5 5 5 8 7 8 9 8 8 6 3 3 4 4 4 4 3 3 3 3 3 2 1 1 2 2 4 8 8 8
5 5 6 6 6 7 8 8 8 6 6 7 8 8 7 6 6 7 7 7 7 7 7 5 4 4 3 3 5 5 4 2 1 1 3 2 1 2 3 3 7 8 8
6 6 6 6 7 7 9 9 7 4 6 8 8 8 7 6 8 10 8 7 7 6 7 7 7 6 5 4 4 3 3 2 2 2 2 2 2 2 2 2 4 8 8
6 6 6 7 7 7 9 9 7 4 5 6 7 7 9 8 8 7 7 7 8 7 6 6 5 5 5 5 6 5 5 4 3 2 3 3 2 2 1 2 3 3 4
Wind_Direction
9 2 351 22 360 360 355 342 322 344 335 320 323 330 339 327 320 75 128 149 147 149 159 166 161 158 157 154 150 143 133 127 119 115 116 117 120 122 122 121 118 118 117
17 0 357 16 13 351 338 331 327 330 314 317 320 324 323 314 324 348 160 160 166 164 167 178 174 164 164 162 160 154 146 139 132 126 125 125 128 130 130 130 127 126 125
19 27 8 4 2 348 349 344 336 335 327 324 318 311 310 317 286 278 238 169 165 173 175 182 182 172 168 168 165 162 154 147 142 136 134 135 136 137 138 137 135 133 131
26 36 14 352 350 355 353 331 348 345 339 336 330 319 323 288 264 241 238 195 167 166 173 181 180 174 171 171 168 166 160 155 151 147 143 144 142 143 145 145 143 141 137
14 25 3 345 356 4 1 344 3 347 336 329 312 304 318 322 287 277 220 191 163 155 158 172 175 174 171 172 171 169 166 161 159 154 153 155 153 152 151 150 150 149 145
8 11 348 358 11 7 358 345 347 333 321 315 324 345 320 296 310 3 40 63 38 166 154 156 162 179 177 168 171 173 169 169 170 164 163 162 160 161 159 158 157 156 154
14 0 349 348 2 6 1 356 348 336 335 335 343 336 327 336 33 40 28 50 8 48 102 134 156 164 170 172 172 177 173 173 176 172 169 168 166 167 166 165 164 164 163
22 356 359 344 350 358 10 351 350 341 333 346 346 342 341 358 7 13 21 40 50 43 103 130 134 154 158 152 168 174 175 173 178 178 174 172 172 174 174 174 172 172 172
57 6 344 339 337 2 8 353 2 357 339 330 356 18 10 349 334 343 12 31 43 39 42 78 102 94 130 140 148 172 175 175 179 182 177 176 179 180 179 180 178 178 178
130 56 329 323 329 353 15 354 14 352 344 336 337 345 327 309 353 333 342 10 28 43 34 42 62 82 89 102 128 150 165 171 178 181 180 181 186 187 185 184 184 183 182
166 161 283 307 324 351 21 0 351 351 352 353 337 333 337 343 319 157 308 338 9 18 32 70 82 72 81 104 121 138 156 160 169 172 176 182 191 194 190 188 188 189 189
191 177 204 278 308 341 3 343 329 340 335 338 335 346 353 358 335 342 318 314 347 312 349 83 119 116 101 100 121 132 143 148 156 157 165 174 184 194 198 193 192 192 193
210 184 175 259 273 314 315 310 317 310 308 325 335 341 336 327 313 333 23 321 307 279 6 21 149 131 128 120 121 129 139 148 151 152 152 153 162 179 195 200 201 200 199
224 152 191 258 259 287 310 300 297 301 307 328 345 348 319 317 321 327 166 122 339 328 351 238 171 144 136 134 144 149 147 157 156 158 154 155 162 170 178 186 194 200 202
248 195 245 248 233 222 257 303 298 304 317 327 329 329 316 289 291 305 263 171 154 242 263 218 202 176 148 140 158 172 161 167 167 167 167 166 169 172 166 172 183 184 186
290 254 251 254 247 220 204 220 270 287 302 273 232 252 297 308 314 299 270 259 196 180 244 237 208 197 154 150 159 161 157 160 175 178 179 177 179 181 180 185 185 187 187
270 260 251 251 253 241 217 200 225 252 277 286 281 231 239 239 275 294 287 271 249 192 216 259 229 186 153 149 156 179 165 172 178 182 183 186 185 188 190 194 196 194 194
274 272 279 273 267 257 245 224 224 239 242 257 271 281 268 242 221 260 282 280 261 222 189 225 240 214 175 177 175 188 189 179 171 181 183 187 188 191 193 194 196 195 191
294 284 276 272 273 270 266 254 235 240 237 238 236 240 254 253 234 239 240 256 267 252 187 193 226 202 195 183 154 193 211 183 166 172 180 188 188 186 186 186 187 185 183
307 301 294 283 272 266 263 268 273 264 257 245 231 225 225 221 222 238 236 239 250 247 222 205 211 200 200 191 157 184 203 197 188 172 168 169 177 178 179 176 175 173 176
311 306 307 306 299 287 277 298 297 292 287 273 251 231 219 210 204 209 222 234 248 237 224 209 211 207 201 183 195 193 182 191 215 182 151 168 160 165 178 174 171 169 170
307 310 307 301 297 295 289 278 284 296 293 286 274 251 226 215 211 212 217 216 212 218 224 213 211 213 212 196 184 176 174 172 222 205 157 202 168 163 170 165 169 170 172
303 301 298 294 288 285 278 270 264 275 280 280 279 272 261 234 209 209 214 221 226 228 223 220 229 219 210 192 173 182 193 191 203 191 138 216 190 166 157 151 157 160 162
306 295 289 287 286 285 276 268 264 261 271 271 269 265 261 252 226 210 206 211 217 220 223 220 231 229 213 184 171 177 184 178 183 181 147 181 197 169 147 146 160 159 160
299 294 292 287 283 282 272 265 260 263 267 271 269 266 263 256 240 224 212 213 216 219 219 207 203 206 190 180 167 145 158 159 203 223 183 168 179 150 150 161 169 167 163
297 299 297 291 286 283 280 269 256 263 270 278 278 270 262 258 254 238 226 216 219 214 199 197 204 206 199 195 193 182 177 179 185 206 197 164 169 148 160 161 153 165 172